Tracking 19636 objects as of 25-May-2019
HD Live streaming from Space Station
objects crossing your sky now

TZINGHUA 1

Track TZINGHUA 1 now!
10-day predictions
TZINGHUA 1 is classified as:


NORAD ID: 26385
Int'l Code: 2000-033B
Perigee: 674.5 km
Apogee: 697.2 km
Inclination: 97.9 °
Period: 98.3 minutes
Semi major axis: 7056 km
RCS: 0.4926 m2 (medium)
Launch date: June 28, 2000
Source: People's Republic of China (PRC)
Launch site: PLESETSK MISSILE AND SPACE COMPLEX (PKMTR)
aabbcc
Your satellite tracking list
Your tracking list is empty




NASA's NSSDC Master Catalog

Two Line Element Set (TLE):
1 26385U 00033B   19144.18290670 -.00000007  00000-0  72957-5 0  9995
2 26385  97.9408 198.6386 0016070  24.3614 335.8346 14.64489475  9258
Source of the keplerian elements: AFSPC